Powrót do katalogu

DELTA 2 R/B(1)

AktywnyMEO
NORAD 34382·ROCKET BODY·🇺🇸 United States

Wystrzelony Mar 7, 2009 z Cape Canaveral Space Force Station

Loading…

Następne Przeloty (najbliższe 24 godziny)

TLE

ŚwieżeSource: Space-Track

Epoka: Sep 14, 2026, 02:12 UTC

1 34382U 09011C   26257.09189859  .00000031  00000-0  36015-2 0  9993
2 34382  28.5598 292.0248 2279249 303.5174  47.7970  7.34326062470350

Śledź DELTA 2 R/B(1) w czasie rzeczywistym z AllMySat

Download on the App Store